Location: Rayville (historical)
(39.9992°N, 99.6815°W)
Time: 15:10:01
(UTC+00:00)

USA 267 - Pass Details

Date: 18 February 2020
Orbit: 1101 x 1107 km, 123.0° (Epoch: 26 March)

Event Time Altitude Azimuth Distance (km) Brightness Sun altitude
Exits shadow 03:32:45 49° 313° (NW) 1,400 3.9 -37.9°
Drops below altitude 10° 03:38:31 10° 254° (WSW) 2,958 6.0 -38.9°
Sets 03:41:04 0° 249° (WSW) 3,915 6.7 -39.4°
